contact:dominique.lefevre@mio.osupytheas.fr, maurice.libes@osupytheas.fr, didier.mallarino@osupytheas.fr
Project:EMSO http://www.emso-fr.org/EMSO-France
Depth: 2436.0 m
Title:EMSO Ligure Ouest : Data MII capteur AQUADOPP
Date,Latitude,Longitude,X_East,Y_North,Z_Up,Amplitude_X,Amplitude_Y,Amplitude_Z,Batterie,SoundSpeed,Heading,Pitch,Roll,Pressure,TIS,Speed,Direction
, degrees North, degrees East, m.s-1, m.s-1,m.s-1, 1, 1, 1, Volt, m.s-1, degree, degree, degree, dbar, degree_C, m.s-1, degree
2021-03-01T00:04:03,42.805,6.029,-0.071,0.009,-0.018,106.0,106.0,104.0,13.4,1505.2,327.2,-0.7,1.8,2470.351,13.28,0.071,277.2
2021-03-01T00:07:03,42.805,6.029,-0.088,0.022,-0.025,105.0,106.0,104.0,13.3,1505.2,323.0,-0.7,1.8,2470.279,13.28,0.09,284.0
2021-03-01T00:10:03,42.805,6.029,-0.09,0.019,0.015,106.0,106.0,103.0,13.4,1505.2,325.5,-0.7,1.8,2470.307,13.28,0.091,281.9
2021-03-01T00:13:03,42.805,6.029,-0.091,0.028,0.014,106.0,107.0,103.0,13.4,1505.2,328.5,-0.8,1.9,2470.272,13.28,0.095,287.1
2021-03-01T00:16:03,42.805,6.029,-0.081,0.048,0.012,105.0,106.0,103.0,13.4,1505.2,323.1,-0.8,1.8,2470.246,13.28,0.094,300.7
2021-03-01T00:19:03,42.805,6.029,-0.098,0.024,0.02,106.0,105.0,103.0,13.4,1505.2,324.7,-0.7,1.8,2470.282,13.28,0.1,283.8
2021-03-01T00:22:03,42.805,6.029,-0.105,0.029,-0.025,105.0,104.0,104.0,13.4,1505.2,327.8,-0.8,1.8,2470.295,13.28,0.108,285.4
2021-03-01T00:25:03,42.805,6.029,-0.075,0.027,0.028,106.0,107.0,103.0,13.4,1505.2,323.2,-0.7,1.8,2470.219,13.28,0.079,289.8
2021-03-01T00:28:03,42.805,6.029,-0.08,0.012,0.018,106.0,108.0,103.0,13.4,1505.2,324.2,-0.7,1.8,2470.265,13.28,0.08,278.5
2021-03-01T00:31:03,42.805,6.029,-0.09,0.027,0.01,106.0,106.0,103.0,13.3,1505.2,324.9,-0.7,1.8,2470.304,13.28,0.093,286.7
2021-03-01T00:34:03,42.805,6.029,-0.089,0.037,0.028,107.0,106.0,103.0,13.3,1505.2,326.4,-0.8,1.8,2470.257,13.28,0.096,292.6
2021-03-01T00:37:03,42.805,6.029,-0.079,0.017,0.014,105.0,106.0,102.0,13.4,1505.2,325.1,-0.8,1.8,2470.242,13.28,0.08,282.1
2021-03-01T00:40:03,42.805,6.029,-0.101,0.038,0.015,106.0,106.0,103.0,13.3,1505.2,325.1,-0.7,1.8,2470.251,13.28,0.107,290.6
2021-03-01T00:43:03,42.805,6.029,-0.095,0.021,-0.014,106.0,106.0,104.0,13.4,1505.2,326.5,-0.7,1.9,2470.254,13.28,0.097,282.5
2021-03-01T00:46:03,42.805,6.029,-0.096,0.034,0.03,105.0,105.0,104.0,13.4,1505.2,325.7,-0.8,1.8,2470.239,13.28,0.101,289.5
2021-03-01T00:49:03,42.805,6.029,-0.1,0.037,-0.023,104.0,106.0,104.0,13.4,1505.2,325.0,-0.7,1.8,2470.261,13.28,0.106,290.3
2021-03-01T00:52:03,42.805,6.029,-0.091,0.023,0.01,105.0,108.0,103.0,13.4,1505.2,326.3,-0.8,1.8,2470.22,13.28,0.093,284.2
2021-03-01T00:55:03,42.805,6.029,-0.072,0.029,0.025,106.0,106.0,104.0,13.4,1505.2,327.8,-0.7,1.8,2470.223,13.28,0.077,291.9
2021-03-01T00:58:03,42.805,6.029,-0.092,0.014,0.007,105.0,106.0,103.0,13.4,1505.2,326.8,-0.8,1.8,2470.277,13.28,0.093,278.7
2021-03-01T01:04:03,42.805,6.029,-0.062,0.038,0.017,106.0,106.0,103.0,13.3,1505.2,322.8,-0.8,1.8,2470.254,13.28,0.072,301.5
2021-03-01T01:07:03,42.805,6.029,-0.074,0.031,0.0,106.0,106.0,103.0,13.3,1505.2,323.5,-0.7,1.8,2470.264,13.28,0.08,292.7
2021-03-01T01:10:03,42.805,6.029,-0.076,0.04,0.038,106.0,109.0,103.0,13.4,1505.2,323.4,-0.7,1.8,2470.246,13.28,0.085,297.8
2021-03-01T01:13:03,42.805,6.029,-0.083,0.036,-0.01,105.0,107.0,103.0,13.4,1505.2,327.0,-0.8,1.8,2470.241,13.28,0.09,293.4
2021-03-01T01:16:03,42.805,6.029,-0.091,0.022,0.031,107.0,108.0,103.0,13.4,1505.2,324.9,-0.7,1.8,2470.239,13.28,0.093,283.6
2021-03-01T01:19:03,42.805,6.029,-0.082,0.005,0.013,106.0,108.0,103.0,13.3,1505.2,328.6,-0.8,1.8,2470.287,13.28,0.082,273.5
2021-03-01T01:22:03,42.805,6.029,-0.058,0.028,-0.004,106.0,108.0,104.0,13.4,1505.2,327.1,-0.7,1.8,2470.246,13.28,0.064,295.8
2021-03-01T01:25:03,42.805,6.029,-0.066,0.057,0.017,106.0,106.0,104.0,13.4,1505.2,328.1,-0.8,1.8,2470.24,13.28,0.087,310.8
2021-03-01T01:28:03,42.805,6.029,-0.082,0.039,0.024,106.0,106.0,103.0,13.3,1505.2,328.0,-0.7,1.8,2470.225,13.28,0.09,295.4
2021-03-01T01:31:03,42.805,6.029,-0.076,0.001,0.022,106.0,106.0,102.0,13.4,1505.2,324.4,-0.7,1.8,2470.21,13.28,0.076,270.8
2021-03-01T01:34:03,42.805,6.029,-0.089,0.04,0.048,106.0,108.0,104.0,13.4,1505.2,324.5,-0.7,1.8,2470.182,13.28,0.097,294.2
2021-03-01T01:37:03,42.805,6.029,-0.071,0.02,0.012,104.0,107.0,104.0,13.4,1505.2,328.4,-0.8,1.8,2470.212,13.28,0.073,285.7
2021-03-01T01:40:03,42.805,6.029,-0.078,0.029,0.026,106.0,106.0,104.0,13.4,1505.2,323.1,-0.7,1.8,2470.207,13.28,0.083,290.4
2021-03-01T01:43:03,42.805,6.029,-0.081,0.033,0.019,106.0,108.0,104.0,13.4,1505.2,326.7,-0.7,1.8,2470.244,13.28,0.087,292.2
2021-03-01T01:46:03,42.805,6.029,-0.076,0.027,0.006,106.0,107.0,103.0,13.4,1505.2,325.9,-0.8,1.8,2470.194,13.28,0.08,289.6
2021-03-01T01:49:03,42.805,6.029,-0.106,0.037,-0.014,107.0,107.0,105.0,13.4,1505.2,323.7,-0.7,1.8,2470.174,13.28,0.112,289.2
2021-03-01T01:52:03,42.805,6.029,-0.079,0.026,0.029,106.0,110.0,104.0,13.4,1505.2,323.1,-0.7,1.8,2470.186,13.28,0.083,288.2
2021-03-01T01:55:03,42.805,6.029,-0.065,0.031,0.009,108.0,109.0,104.0,13.4,1505.2,326.9,-0.7,1.9,2470.216,13.28,0.072,295.5
2021-03-01T01:58:03,42.805,6.029,-0.057,0.04,-0.001,108.0,110.0,103.0,13.3,1505.2,325.7,-0.8,1.8,2470.241,13.28,0.069,305.1
2021-03-01T02:04:03,42.805,6.029,-0.091,0.027,0.002,106.0,107.0,105.0,13.3,1505.2,323.4,-0.8,1.8,2470.267,13.28,0.094,286.5
2021-03-01T02:07:03,42.805,6.029,-0.092,0.041,-0.003,107.0,108.0,103.0,13.4,1505.2,323.0,-0.8,1.8,2470.229,13.28,0.1,294.0
2021-03-01T02:10:03,42.805,6.029,-0.087,0.035,-0.01,106.0,108.0,104.0,13.3,1505.2,326.7,-0.8,1.8,2470.21,13.28,0.093,291.9
2021-03-01T02:13:03,42.805,6.029,-0.082,0.034,0.0,107.0,108.0,105.0,13.4,1505.2,326.4,-0.7,1.8,2470.222,13.28,0.088,292.5
2021-03-01T02:16:03,42.805,6.029,-0.098,0.013,-0.034,107.0,107.0,104.0,13.3,1505.2,327.6,-0.7,1.8,2470.225,13.28,0.098,277.6
2021-03-01T02:19:03,42.805,6.029,-0.065,0.045,-0.004,107.0,108.0,103.0,13.3,1505.2,328.1,-0.8,1.8,2470.206,13.28,0.079,304.7
2021-03-01T02:22:03,42.805,6.029,-0.079,0.024,-0.021,108.0,107.0,103.0,13.4,1505.2,327.9,-0.7,1.8,2470.201,13.28,0.082,286.9
2021-03-01T02:25:03,42.805,6.029,-0.075,0.019,-0.002,106.0,108.0,105.0,13.3,1505.2,328.1,-0.7,1.8,2470.214,13.28,0.077,284.2
2021-03-01T02:28:03,42.805,6.029,-0.063,0.026,0.023,107.0,106.0,104.0,13.4,1505.2,324.2,-0.7,1.8,2470.202,13.28,0.068,292.4
2021-03-01T02:31:03,42.805,6.029,-0.094,0.029,0.017,107.0,107.0,104.0,13.3,1505.2,324.8,-0.7,1.8,2470.166,13.28,0.098,287.1
2021-03-01T02:34:03,42.805,6.029,-0.065,0.037,0.005,108.0,107.0,104.0,13.4,1505.2,327.8,-0.7,1.8,2470.193,13.28,0.074,299.7
2021-03-01T02:37:03,42.805,6.029,-0.081,0.024,0.018,107.0,110.0,104.0,13.3,1505.2,324.9,-0.8,1.8,2470.18,13.28,0.084,286.5
2021-03-01T02:40:03,42.805,6.029,-0.087,0.039,-0.006,107.0,108.0,104.0,13.4,1505.2,327.8,-0.8,1.8,2470.201,13.28,0.095,294.1
2021-03-01T02:43:03,42.805,6.029,-0.075,0.005,0.003,108.0,107.0,104.0,13.4,1505.2,326.9,-0.7,1.8,2470.174,13.28,0.075,273.8
2021-03-01T02:46:03,42.805,6.029,-0.08,0.03,0.004,106.0,106.0,105.0,13.3,1505.2,324.7,-0.7,1.8,2470.203,13.28,0.085,290.6
2021-03-01T02:49:03,42.805,6.029,-0.087,0.022,0.002,107.0,109.0,104.0,13.4,1505.2,324.0,-0.8,1.9,2470.212,13.28,0.089,284.2
2021-03-01T02:52:03,42.805,6.029,-0.082,0.004,-0.008,107.0,107.0,104.0,13.4,1505.2,326.0,-0.8,1.9,2470.182,13.28,0.082,272.8
2021-03-01T02:55:03,42.805,6.029,-0.081,0.029,0.004,107.0,106.0,104.0,13.3,1505.2,327.3,-0.7,1.8,2470.177,13.28,0.086,289.7
2021-03-01T02:58:03,42.805,6.029,-0.086,0.019,-0.006,107.0,106.0,104.0,13.4,1505.2,325.0,-0.7,1.8,2470.19,13.28,0.088,282.5
2021-03-01T03:04:03,42.805,6.029,-0.088,0.023,0.004,106.0,108.0,105.0,13.4,1505.2,324.0,-0.8,1.8,2470.223,13.28,0.09,284.6
2021-03-01T03:07:03,42.805,6.029,-0.086,0.028,-0.01,107.0,107.0,105.0,13.4,1505.2,326.7,-0.8,1.8,2470.227,13.28,0.09,288.0
2021-03-01T03:10:03,42.805,6.029,-0.069,0.019,0.009,108.0,106.0,104.0,13.4,1505.2,326.2,-0.7,1.9,2470.189,13.28,0.071,285.4
2021-03-01T03:13:03,42.805,6.029,-0.074,0.016,0.007,108.0,107.0,105.0,13.4,1505.2,325.4,-0.8,1.8,2470.213,13.28,0.075,282.2
2021-03-01T03:16:03,42.805,6.029,-0.084,0.021,-0.008,108.0,106.0,104.0,13.3,1505.2,324.8,-0.7,1.9,2470.198,13.28,0.086,284.0
2021-03-01T03:19:03,42.805,6.029,-0.076,0.009,-0.002,108.0,107.0,104.0,13.4,1505.2,327.9,-0.8,1.8,2470.203,13.28,0.076,276.8
2021-03-01T03:22:03,42.805,6.029,-0.067,0.015,0.022,108.0,107.0,105.0,13.4,1505.2,325.7,-0.8,1.8,2470.211,13.28,0.068,282.6
2021-03-01T03:25:03,42.805,6.029,-0.077,0.009,-0.023,108.0,108.0,104.0,13.4,1505.2,325.8,-0.8,1.8,2470.219,13.28,0.077,276.7
2021-03-01T03:28:03,42.805,6.029,-0.063,0.003,-0.017,108.0,108.0,104.0,13.4,1505.2,322.8,-0.7,1.8,2470.193,13.28,0.063,272.7
2021-03-01T03:31:03,42.805,6.029,-0.099,0.03,0.025,107.0,106.0,103.0,13.3,1505.2,325.8,-0.8,1.8,2470.216,13.28,0.103,286.9
2021-03-01T03:34:03,42.805,6.029,-0.083,0.012,-0.006,107.0,107.0,104.0,13.4,1505.2,326.2,-0.8,1.8,2470.191,13.28,0.083,278.2
2021-03-01T03:37:03,42.805,6.029,-0.084,0.015,0.023,108.0,107.0,104.0,13.4,1505.2,324.7,-0.7,1.8,2470.241,13.28,0.085,280.1
2021-03-01T03:40:03,42.805,6.029,-0.063,0.004,0.008,107.0,106.0,104.0,13.3,1505.2,327.7,-0.7,1.8,2470.198,13.28,0.063,273.6
2021-03-01T03:43:03,42.805,6.029,-0.097,-0.003,-0.025,107.0,107.0,104.0,13.4,1505.2,324.0,-0.7,1.8,2470.249,13.28,0.097,268.2
2021-03-01T03:46:03,42.805,6.029,-0.09,0.016,-0.008,108.0,108.0,104.0,13.3,1505.2,324.4,-0.8,1.8,2470.248,13.28,0.091,280.1
2021-03-01T03:49:03,42.805,6.029,-0.087,0.017,-0.009,107.0,108.0,104.0,13.3,1505.2,327.3,-0.7,1.8,2470.186,13.28,0.088,281.1
2021-03-01T03:52:03,42.805,6.029,-0.087,-0.001,0.0,108.0,107.0,104.0,13.4,1505.2,325.0,-0.7,1.8,2470.206,13.28,0.087,269.3
2021-03-01T03:55:03,42.805,6.029,-0.098,-0.002,0.005,109.0,106.0,104.0,13.4,1505.2,326.4,-0.8,1.8,2470.204,13.28,0.098,268.8
2021-03-01T03:58:03,42.805,6.029,-0.083,0.005,-0.02,108.0,106.0,103.0,13.3,1505.2,325.9,-0.8,1.8,2470.224,13.28,0.083,273.4
2021-03-01T04:04:03,42.805,6.029,-0.071,0.022,0.021,108.0,107.0,104.0,13.4,1505.2,325.0,-0.7,1.8,2470.237,13.28,0.074,287.2
2021-03-01T04:07:03,42.805,6.029,-0.059,0.016,0.007,108.0,107.0,104.0,13.3,1505.2,327.6,-0.7,1.8,2470.243,13.28,0.061,285.2
2021-03-01T04:10:03,42.805,6.029,-0.053,0.015,0.0,107.0,107.0,104.0,13.3,1505.2,328.4,-0.8,1.8,2470.257,13.28,0.055,285.8
2021-03-01T04:13:03,42.805,6.029,-0.075,0.008,-0.005,107.0,107.0,104.0,13.3,1505.2,328.2,-0.7,1.9,2470.252,13.28,0.075,276.1
2021-03-01T04:16:03,42.805,6.029,-0.072,0.01,0.023,108.0,106.0,104.0,13.4,1505.2,324.0,-0.7,1.8,2470.245,13.28,0.072,277.9
2021-03-01T04:19:03,42.805,6.029,-0.079,0.029,-0.013,108.0,106.0,104.0,13.3,1505.2,323.0,-0.7,1.8,2470.266,13.28,0.084,290.2
2021-03-01T04:22:03,42.805,6.029,-0.073,0.018,-0.005,108.0,105.0,105.0,13.3,1505.2,323.0,-0.7,1.8,2470.271,13.28,0.075,283.8
2021-03-01T04:25:03,42.805,6.029,-0.095,0.01,0.008,107.0,107.0,104.0,13.3,1505.2,325.3,-0.8,1.9,2470.226,13.28,0.095,276.0
2021-03-01T04:28:03,42.805,6.029,-0.081,0.039,0.021,106.0,109.0,104.0,13.4,1505.2,324.8,-0.7,1.8,2470.236,13.28,0.089,295.7
2021-03-01T04:31:03,42.805,6.029,-0.08,0.024,0.018,108.0,106.0,103.0,13.3,1505.2,324.5,-0.8,1.9,2470.246,13.28,0.083,286.7
2021-03-01T04:34:03,42.805,6.029,-0.053,0.004,-0.024,107.0,106.0,104.0,13.4,1505.2,324.5,-0.7,1.8,2470.264,13.28,0.053,274.3
2021-03-01T04:37:03,42.805,6.029,-0.075,0.003,-0.012,108.0,106.0,105.0,13.3,1505.2,324.7,-0.8,1.9,2470.217,13.28,0.075,272.3
2021-03-01T04:40:03,42.805,6.029,-0.083,0.002,-0.009,108.0,105.0,104.0,13.3,1505.2,326.7,-0.8,1.8,2470.273,13.28,0.083,271.4
2021-03-01T04:43:03,42.805,6.029,-0.086,0.019,-0.007,106.0,106.0,104.0,13.4,1505.2,323.2,-0.7,1.8,2470.204,13.28,0.088,282.5
2021-03-01T04:46:03,42.805,6.029,-0.086,0.022,0.02,106.0,106.0,103.0,13.4,1505.2,324.8,-0.8,1.8,2470.239,13.28,0.088,284.3
2021-03-01T04:49:03,42.805,6.029,-0.07,0.025,-0.038,106.0,106.0,103.0,13.4,1505.2,324.8,-0.7,1.8,2470.245,13.28,0.074,289.6
2021-03-01T04:52:03,42.805,6.029,-0.07,-0.019,-0.035,106.0,105.0,104.0,13.4,1505.2,323.9,-0.8,1.8,2470.236,13.28,0.072,254.8
2021-03-01T04:55:03,42.805,6.029,-0.078,0.0,0.009,107.0,106.0,102.0,13.4,1505.2,323.4,-0.8,1.8,2470.248,13.28,0.077,270.0
2021-03-01T04:58:03,42.805,6.029,-0.051,0.017,0.023,108.0,106.0,105.0,13.3,1505.2,326.1,-0.8,1.8,2470.28,13.28,0.053,288.4
2021-03-01T05:04:03,42.805,6.029,-0.077,0.019,0.02,106.0,105.0,104.0,13.4,1505.2,328.1,-0.8,1.8,2470.314,13.28,0.079,283.9
2021-03-01T05:07:03,42.805,6.029,-0.116,-0.014,-0.034,106.0,107.0,102.0,13.4,1505.2,323.8,-0.8,1.8,2470.292,13.28,0.116,263.1
2021-03-01T05:10:03,42.805,6.029,-0.095,0.014,0.031,106.0,106.0,103.0,13.4,1505.2,326.7,-0.8,1.9,2470.309,13.28,0.096,278.4
2021-03-01T05:13:03,42.805,6.029,-0.076,0.007,0.003,106.0,105.0,103.0,13.4,1505.2,325.6,-0.7,1.8,2470.302,13.28,0.076,275.3
2021-03-01T05:16:03,42.805,6.029,-0.084,0.002,-0.01,106.0,105.0,104.0,13.4,1505.2,325.1,-0.8,1.8,2470.316,13.28,0.084,271.4
2021-03-01T05:19:03,42.805,6.029,-0.061,0.02,-0.01,106.0,105.0,104.0,13.4,1505.2,327.2,-0.8,1.8,2470.314,13.28,0.064,288.1
2021-03-01T05:22:03,42.805,6.029,-0.061,0.006,-0.023,106.0,107.0,104.0,13.4,1505.2,323.8,-0.8,1.8,2470.329,13.28,0.061,275.6
2021-03-01T05:25:03,42.805,6.029,-0.048,0.001,-0.003,105.0,106.0,104.0,13.4,1505.2,323.9,-0.8,1.9,2470.288,13.28,0.048,271.2
2021-03-01T05:28:03,42.805,6.029,-0.081,0.007,-0.006,106.0,106.0,104.0,13.3,1505.2,324.2,-0.7,1.9,2470.298,13.28,0.081,274.9
2021-03-01T05:31:03,42.805,6.029,-0.112,0.016,0.008,106.0,106.0,104.0,13.4,1505.2,327.1,-0.8,1.8,2470.298,13.28,0.113,278.1
2021-03-01T05:34:03,42.805,6.029,-0.085,0.006,-0.007,105.0,105.0,103.0,13.3,1505.2,327.0,-0.7,1.8,2470.311,13.28,0.085,274.0
2021-03-01T05:37:03,42.805,6.029,-0.11,-0.001,-0.012,106.0,106.0,104.0,13.4,1505.2,326.4,-0.7,1.8,2470.331,13.28,0.11,269.5
2021-03-01T05:40:03,42.805,6.029,-0.074,0.018,0.006,106.0,105.0,103.0,13.4,1505.2,326.5,-0.8,1.8,2470.351,13.28,0.076,283.7
2021-03-01T05:43:03,42.805,6.029,-0.089,0.025,-0.002,105.0,106.0,103.0,13.4,1505.2,326.4,-0.8,1.8,2470.328,13.28,0.092,285.7
2021-03-01T05:46:03,42.805,6.029,-0.076,0.011,-0.013,106.0,104.0,104.0,13.4,1505.2,326.7,-0.7,1.8,2470.304,13.28,0.076,278.2
2021-03-01T05:49:03,42.805,6.029,-0.088,0.031,0.02,106.0,106.0,103.0,13.4,1505.2,326.8,-0.7,1.8,2470.35,13.28,0.093,289.4
2021-03-01T05:52:03,42.805,6.029,-0.06,-0.007,0.004,106.0,106.0,103.0,13.4,1505.2,327.0,-0.8,1.8,2470.34,13.28,0.06,263.3
2021-03-01T05:55:03,42.805,6.029,-0.076,0.003,0.003,106.0,105.0,103.0,13.4,1505.2,323.5,-0.8,1.8,2470.346,13.28,0.076,272.3
2021-03-01T05:58:03,42.805,6.029,-0.076,0.004,0.001,106.0,106.0,104.0,13.4,1505.2,324.5,-0.8,1.8,2470.319,13.28,0.076,273.0
2021-03-01T06:04:03,42.805,6.029,-0.078,0.008,-0.015,106.0,105.0,103.0,13.4,1505.2,325.9,-0.8,1.8,2470.34,13.28,0.078,275.9
2021-03-01T06:07:03,42.805,6.029,-0.071,0.017,0.013,105.0,106.0,103.0,13.4,1505.2,327.8,-0.7,1.8,2470.375,13.28,0.073,283.5
2021-03-01T06:10:03,42.805,6.029,-0.08,0.0,0.005,106.0,106.0,103.0,13.4,1505.2,325.6,-0.8,1.8,2470.379,13.28,0.079,270.0
2021-03-01T06:13:03,42.805,6.029,-0.059,0.012,0.017,106.0,107.0,104.0,13.4,1505.2,324.4,-0.7,1.8,2470.335,13.28,0.06,281.5
2021-03-01T06:16:03,42.805,6.029,-0.061,0.013,0.012,106.0,105.0,105.0,13.3,1505.2,326.4,-0.8,1.8,2470.373,13.28,0.062,282.0
2021-03-01T06:19:03,42.805,6.029,-0.075,-0.006,-0.016,108.0,104.0,103.0,13.3,1505.2,324.6,-0.8,1.8,2470.362,13.28,0.075,265.4
2021-03-01T06:22:03,42.805,6.029,-0.089,0.009,0.007,105.0,104.0,104.0,13.3,1505.2,327.7,-0.8,1.8,2470.364,13.28,0.089,275.8
2021-03-01T06:25:03,42.805,6.029,-0.067,0.005,-0.016,107.0,105.0,103.0,13.4,1505.2,328.7,-0.7,1.9,2470.41,13.28,0.067,274.3
2021-03-01T06:28:03,42.805,6.029,-0.096,0.006,-0.016,106.0,104.0,102.0,13.3,1505.2,328.2,-0.8,1.8,2470.429,13.28,0.096,273.6
2021-03-01T06:31:03,42.805,6.029,-0.075,0.038,0.01,106.0,106.0,103.0,13.4,1505.2,325.6,-0.8,1.8,2470.421,13.28,0.084,296.9
2021-03-01T06:34:03,42.805,6.029,-0.077,0.003,0.012,106.0,105.0,103.0,13.4,1505.2,325.2,-0.8,1.9,2470.415,13.28,0.077,272.2
2021-03-01T06:37:03,42.805,6.029,-0.09,-0.01,-0.004,106.0,106.0,104.0,13.4,1505.2,326.1,-0.7,1.8,2470.414,13.28,0.09,263.7
2021-03-01T06:40:03,42.805,6.029,-0.08,0.014,-0.012,105.0,104.0,103.0,13.3,1505.2,324.7,-0.8,1.8,2470.391,13.28,0.081,279.9
2021-03-01T06:43:03,42.805,6.029,-0.088,0.035,-0.002,105.0,105.0,103.0,13.3,1505.2,325.4,-0.8,1.8,2470.411,13.28,0.094,291.7
2021-03-01T06:46:03,42.805,6.029,-0.096,0.022,-0.016,106.0,105.0,103.0,13.4,1505.2,324.7,-0.7,1.8,2470.421,13.28,0.098,282.9
2021-03-01T06:49:03,42.805,6.029,-0.106,0.018,0.009,105.0,104.0,103.0,13.4,1505.2,326.3,-0.7,1.9,2470.437,13.28,0.107,279.6
2021-03-01T06:52:03,42.805,6.029,-0.081,0.021,0.007,105.0,108.0,102.0,13.4,1505.2,323.8,-0.8,1.8,2470.384,13.28,0.083,284.5
2021-03-01T06:55:03,42.805,6.029,-0.071,0.015,0.006,105.0,105.0,103.0,13.4,1505.2,328.1,-0.8,1.8,2470.466,13.28,0.072,281.9
2021-03-01T06:58:03,42.805,6.029,-0.059,0.001,-0.016,105.0,103.0,103.0,13.4,1505.2,325.7,-0.7,1.8,2470.433,13.28,0.059,271.0
2021-03-01T07:04:03,42.805,6.029,-0.073,0.001,-0.007,106.0,105.0,104.0,13.4,1505.2,323.7,-0.8,1.8,2470.438,13.28,0.073,270.8
2021-03-01T07:07:03,42.805,6.029,-0.093,-0.001,-0.019,106.0,105.0,102.0,13.4,1505.2,326.6,-0.8,1.8,2470.454,13.28,0.093,269.4
2021-03-01T07:10:03,42.805,6.029,-0.093,-0.014,0.01,106.0,104.0,103.0,13.4,1505.2,326.5,-0.7,1.9,2470.452,13.28,0.094,261.4
2021-03-01T07:13:03,42.805,6.029,-0.043,0.015,-0.003,105.0,104.0,103.0,13.4,1505.2,325.3,-0.8,1.8,2470.484,13.28,0.045,289.2
2021-03-01T07:16:03,42.805,6.029,-0.079,0.002,-0.029,104.0,105.0,103.0,13.4,1505.2,326.5,-0.8,1.8,2470.443,13.28,0.079,271.4
2021-03-01T07:19:03,42.805,6.029,-0.09,0.033,0.011,105.0,104.0,103.0,13.4,1505.2,328.0,-0.7,1.9,2470.466,13.28,0.095,290.1
2021-03-01T07:22:03,42.805,6.029,-0.072,0.023,0.026,106.0,105.0,103.0,13.4,1505.2,323.2,-0.7,1.8,2470.448,13.28,0.075,287.7
2021-03-01T07:25:03,42.805,6.029,-0.071,0.023,0.02,105.0,106.0,102.0,13.4,1505.2,326.3,-0.8,1.8,2470.425,13.28,0.074,287.9
2021-03-01T07:28:03,42.805,6.029,-0.07,0.003,-0.026,109.0,107.0,103.0,13.4,1505.2,324.5,-0.8,1.8,2470.491,13.28,0.07,272.4
2021-03-01T07:31:03,42.805,6.029,-0.058,0.004,-0.022,106.0,106.0,104.0,13.4,1505.2,325.1,-0.7,1.8,2470.402,13.28,0.058,273.9
2021-03-01T07:34:03,42.805,6.029,-0.096,0.009,0.023,105.0,107.0,103.0,13.4,1505.2,327.2,-0.7,1.8,2470.506,13.28,0.096,275.4
2021-03-01T07:37:03,42.805,6.029,-0.06,0.006,0.044,106.0,105.0,102.0,13.4,1505.2,325.2,-0.8,1.8,2470.506,13.28,0.06,275.7
2021-03-01T07:40:03,42.805,6.029,-0.077,-0.015,-0.012,105.0,105.0,104.0,13.4,1505.2,323.0,-0.7,1.8,2470.499,13.28,0.078,259.0
2021-03-01T07:43:03,42.805,6.029,-0.071,0.014,-0.003,107.0,105.0,101.0,13.4,1505.2,323.8,-0.8,1.9,2470.447,13.28,0.072,281.2
2021-03-01T07:46:03,42.805,6.029,-0.069,0.0,0.006,105.0,105.0,102.0,13.4,1505.2,323.0,-0.7,1.8,2470.459,13.28,0.068,270.0
2021-03-01T07:49:03,42.805,6.029,-0.083,0.013,-0.001,106.0,105.0,103.0,13.4,1505.2,325.6,-0.8,1.8,2470.472,13.28,0.084,278.9
2021-03-01T07:52:03,42.805,6.029,-0.087,0.006,-0.005,105.0,104.0,102.0,13.4,1505.2,326.0,-0.7,1.8,2470.48,13.28,0.087,273.9
2021-03-01T07:55:03,42.805,6.029,-0.08,0.0,0.002,105.0,105.0,102.0,13.3,1505.2,327.8,-0.7,1.8,2470.47,13.28,0.079,270.0
2021-03-01T07:58:03,42.805,6.029,-0.08,-0.025,-0.005,105.0,105.0,104.0,13.4,1505.2,327.7,-0.8,1.9,2470.486,13.28,0.083,252.6
2021-03-01T08:04:03,42.805,6.029,-0.088,0.012,-0.025,105.0,105.0,102.0,13.3,1505.2,326.8,-0.8,1.8,2470.537,13.28,0.088,277.8
2021-03-01T08:07:03,42.805,6.029,-0.084,0.005,-0.003,105.0,105.0,104.0,13.3,1505.2,325.0,-0.8,1.8,2470.528,13.28,0.084,273.4
2021-03-01T08:10:03,42.805,6.029,-0.069,0.01,0.003,104.0,106.0,103.0,13.3,1505.2,327.3,-0.8,1.8,2470.549,13.28,0.069,278.2
2021-03-01T08:13:03,42.805,6.029,-0.059,0.006,0.015,106.0,106.0,104.0,13.4,1505.2,326.7,-0.8,1.8,2470.508,13.28,0.059,275.8
2021-03-01T08:16:03,42.805,6.029,-0.068,0.006,0.023,105.0,105.0,103.0,13.3,1505.2,323.8,-0.7,1.8,2470.477,13.28,0.068,275.0
2021-03-01T08:19:03,42.805,6.029,-0.094,0.01,-0.019,106.0,105.0,103.0,13.4,1505.2,325.3,-0.7,1.8,2470.48,13.28,0.094,276.1
2021-03-01T08:22:03,42.805,6.029,-0.099,-0.01,0.006,106.0,107.0,103.0,13.4,1505.2,324.6,-0.7,1.8,2470.526,13.28,0.099,264.2
2021-03-01T08:25:03,42.805,6.029,-0.093,0.015,-0.034,106.0,106.0,103.0,13.3,1505.2,325.6,-0.8,1.8,2470.486,13.28,0.094,279.2
2021-03-01T08:28:03,42.805,6.029,-0.076,-0.004,-0.009,105.0,106.0,103.0,13.4,1505.2,326.8,-0.7,1.8,2470.457,13.28,0.076,267.0
2021-03-01T08:31:03,42.805,6.029,-0.07,-0.011,0.026,106.0,104.0,103.0,13.4,1505.2,323.3,-0.7,1.8,2470.504,13.28,0.07,261.1
2021-03-01T08:34:03,42.805,6.029,-0.074,-0.011,-0.009,106.0,105.0,103.0,13.3,1505.2,326.7,-0.8,1.8,2470.49,13.28,0.074,261.5
2021-03-01T08:37:03,42.805,6.029,-0.081,-0.007,-0.007,106.0,106.0,103.0,13.4,1505.2,326.1,-0.7,1.8,2470.512,13.28,0.081,265.1
2021-03-01T08:40:03,42.805,6.029,-0.078,0.012,-0.036,105.0,105.0,104.0,13.4,1505.2,326.1,-0.8,1.8,2470.503,13.28,0.078,278.7
2021-03-01T08:43:03,42.805,6.029,-0.069,0.013,-0.012,106.0,106.0,103.0,13.3,1505.2,328.2,-0.7,1.8,2470.507,13.28,0.07,280.7
2021-03-01T08:46:03,42.805,6.029,-0.074,-0.004,-0.009,106.0,105.0,104.0,13.4,1505.2,325.2,-0.8,1.8,2470.505,13.28,0.074,266.9
2021-03-01T08:49:03,42.805,6.029,-0.052,0.022,-0.016,106.0,105.0,103.0,13.4,1505.2,323.7,-0.8,1.9,2470.46,13.28,0.056,292.9
2021-03-01T08:52:03,42.805,6.029,-0.059,-0.005,-0.009,105.0,106.0,103.0,13.4,1505.2,323.2,-0.7,1.8,2470.471,13.28,0.059,265.2
2021-03-01T08:55:03,42.805,6.029,-0.084,0.011,-0.012,105.0,105.0,103.0,13.4,1505.2,326.4,-0.8,1.8,2470.46,13.28,0.084,277.5
2021-03-01T08:58:03,42.805,6.029,-0.069,-0.004,0.022,106.0,104.0,102.0,13.3,1505.2,328.0,-0.8,1.8,2470.539,13.28,0.069,266.7
2021-03-01T09:04:03,42.805,6.029,-0.083,-0.015,-0.028,105.0,105.0,103.0,13.3,1505.2,326.3,-0.8,1.8,2470.508,13.28,0.084,259.8
2021-03-01T09:07:03,42.805,6.029,-0.058,-0.01,0.026,106.0,105.0,102.0,13.4,1505.2,322.9,-0.8,1.8,2470.493,13.28,0.058,260.2
2021-03-01T09:10:03,42.805,6.029,-0.081,0.001,-0.027,105.0,106.0,104.0,13.4,1505.2,323.0,-0.7,1.9,2470.52,13.28,0.081,270.7
2021-03-01T09:13:03,42.805,6.029,-0.07,-0.015,-0.007,106.0,104.0,103.0,13.3,1505.2,323.0,-0.8,1.8,2470.496,13.28,0.071,257.9
2021-03-01T09:16:03,42.805,6.029,-0.072,0.006,-0.025,106.0,105.0,102.0,13.4,1505.2,326.7,-0.7,1.8,2470.491,13.28,0.072,274.8
2021-03-01T09:19:03,42.805,6.029,-0.08,0.003,-0.001,105.0,106.0,103.0,13.4,1505.2,328.2,-0.8,1.8,2470.452,13.28,0.08,272.1
2021-03-01T09:22:03,42.805,6.029,-0.06,-0.007,-0.003,106.0,105.0,103.0,13.3,1505.2,327.0,-0.7,1.8,2470.455,13.28,0.06,263.3
2021-03-01T09:25:03,42.805,6.029,-0.079,-0.016,0.003,106.0,105.0,103.0,13.4,1505.2,326.9,-0.8,1.8,2470.487,13.28,0.08,258.6
2021-03-01T09:28:03,42.805,6.029,-0.069,0.017,0.005,104.0,105.0,103.0,13.3,1505.2,327.1,-0.8,1.8,2470.514,13.28,0.071,283.8
2021-03-01T09:31:03,42.805,6.029,-0.061,-0.019,-0.007,107.0,104.0,103.0,13.4,1505.2,324.2,-0.7,1.8,2470.492,13.28,0.063,252.7
2021-03-01T09:34:03,42.805,6.029,-0.072,0.026,-0.007,106.0,105.0,103.0,13.4,1505.2,324.8,-0.8,1.8,2470.467,13.28,0.076,289.9
2021-03-01T09:37:03,42.805,6.029,-0.064,0.011,0.005,106.0,105.0,104.0,13.4,1505.2,326.8,-0.7,1.8,2470.474,13.28,0.064,279.8
2021-03-01T09:40:03,42.805,6.029,-0.081,0.017,-0.007,106.0,107.0,103.0,13.3,1505.2,326.1,-0.8,1.8,2470.457,13.28,0.082,281.9
2021-03-01T09:43:03,42.805,6.029,-0.094,0.037,-0.031,106.0,104.0,103.0,13.3,1505.2,326.8,-0.7,1.9,2470.485,13.28,0.101,291.5
2021-03-01T09:46:03,42.805,6.029,-0.068,0.001,0.03,106.0,106.0,103.0,13.3,1505.2,326.7,-0.8,1.8,2470.468,13.28,0.068,270.8
2021-03-01T09:49:03,42.805,6.029,-0.098,0.019,0.01,106.0,105.0,104.0,13.4,1505.2,323.5,-0.7,1.8,2470.487,13.28,0.099,281.0
2021-03-01T09:52:03,42.805,6.029,-0.109,-0.012,-0.027,105.0,107.0,103.0,13.4,1505.2,322.8,-0.7,1.8,2470.433,13.28,0.109,263.7
2021-03-01T09:55:03,42.805,6.029,-0.078,0.027,-0.005,105.0,108.0,103.0,13.4,1505.2,324.9,-0.7,1.8,2470.45,13.28,0.082,289.1